SCP
0 0 0 0 0 0 0 0 0 0 0 0 0 0 0 0 0 0 0 0 0 0 0 0 0 0 0 0 0 0 0 0 0 0 0 0 0 0 0 0 0 0 0 0
0 0 0 0 0 0 0 0 0 0 0 0 0 0 0 0 0 0 0 0 0 0 0 0 0 0 0 0 0 0 0 0 0 0 0 0 0 0 0 0 0 0 0 0
0 0 0 0 0 0 0 0 0 0 0 0 0 0 0 0 0 0 0 0 0 0 0 0 0 0 0 0 0 0 0 0 0 0 0 0 0 0 0 0 0 0 0 0
0 0 0 0 0 0 0 0 0 0 0 0 0 0 0 0 0 0 0 0 0 0 0 0 0 0 0 0 0 0 0 0 0 0 0 0 0 0 0 0 0 0 0 0
0 0 0 0 0 0 0 0 0 0 0 0 0 0 0 0 0 0 0 0 0 0 0 0 0 0 0 0 0 0 0 0 0 0 0 0 0 0 0 0 0 0 0 0
0 0 0 0 0 0 0 0 0 0 0 0 0 0 0 0 0 0 0 0 0 0 0 0 0 0 0 0 0 0 0 0 0 0 0 0 0 0 0 0 0 0 0 0
0 0 0 0 0 0 0 0 0 0 0 0 0 0 0 0 0 0 0 0 0 0 0 0 0 0 0 0 0 0 0 0 0 0 0 0 0 0 0 0 0 0 0 0
0 0 0 0 0 0 0 0 0 0 0 0 0 0 0 0 0 0 0 0 0 0 0 0 0 0 0 0 0 0 0 0 0 0 0 0 0 0 0 0 0 0 0 0
0 0 0 0 0 0 0 0 0 0 0 0 0 0 0 0 0 0 0 0 0 0 0 0 0 0 0 0 0 0 0 0 0 0 0 0 0 0 0 0 0 0 0 0
0 0 0 0 0 0 0 0 0 0 0 0 0 0 0 0 0 0 0 0 0 0 0 0 0 0 0 0 0 0 0 0 0 0 0 0 0 0 0 0 0 0 0 0
0 0 0 0 0 0 0 0 0 0 0 0 0 0 0 0 0 0 0 0 0 0 0 0 0 0 0 0 0 0 0 0 0 0 0 0 0 0 0 0 0 0 0 0
0 0 0 0 0 0 0 0 0 0 0 0 0 0 0 0 0 0 0 0 0 0 0 0 0 0 0 0 0 0 0 0 0 0 0 0 0 0 0 0 0 0 0 0
0 0 0 0 0 0 0 0 0 0 0 0 0 0 0 0 0 0 0 0 0 0 0 0 0 0 0 0 0 0 0 0 0 0 0 0 0 0 0 0 0 0 0 0
0 0 0 0 0 0 0 0 0 0 0 0 0 0 0 0 0 0 0 0 0 0 0 0 0 0 0 0 0 0 0 0 0 0 0 0 0 0 0 0 0 0 0 0
0 0 0 0 0 0 0 0 0 0 0 0 0 0 0 0 0 0 0 0 0 0 0 0 0 0 0 0 0 0 0 0 0 0 0 0 0 0 0 0 0 0 0 0
0 0 0 0 0 0 0 0 0 0 0 0 0 0 0 0 0 0 0 0 0 0 0 0 0 0 0 0 0 0 0 0 0 0 0 0 0 0 0 0 0 0 0 0
0 0 0 0 0 0 0 0 0 0 0 0 0 0 0 0 0 0 0 0 0 0 0 0 0 0 0 0 0 0 0 0 0 0 0 0 0 0 0 0 0 0 0 0
0 0 0 0 0 0 0 0 0 0 0 0 0 0 0 0 0 0 0 0 0 0 0 0 0 0 0 0 0 0 0 0 0 0 0 0 0 0 0 0 0 0 0 0
0 0 0 0 0 0 0 0 0 0 0 0 0 0 0 0 0 0 0 0 0 0 0 0 0 0 0 0 0 0 0 0 0 0 0 0 0 0 0 0 0 0 0 0
0 0 0 0 0 0 0 0 0 0 0 0 0 0 0 0 0 0 0 0 0 0 0 0 0 0 0 0 0 0 0 0 0 0 0 0 0 0 0 0 0 0 0 0
0 0 0 0 0 0 0 0 0 0 0 0 0 0 0 0 0 0 0 0 0 0 0 0 0 0 0 0 0 0 0 0 0 0 0 0 0 0 0 0 0 0 0 0
0 0 0 0 0 0 0 0 0 0 0 0 0 0 0 0 0 0 0 0 0 0 0 0 0 0 0 0 0 0 0 0 0 0 0 0 0 0 0 0 0 0 0 0
0 0 0 0 0 0 0 0 0 0 0 0 0 0 0 0 0 0 0 0 0 0 0 0 0 0 0 0 0 0 0 0 0 0 0 0 0 0 0 0 0 0 0 0
0 0 0 0 0 0 0 0 0 0 0 0 0 0 0 0 0 0 0 0 0 0 0 0 0 0 0 0 0 0 0 0 0 0 0 0 0 0 0 0 0 0 0 0
0 0 0 0 0 0 0 0 0 0 0 0 0 0 0 0 0 0 0 0 0 0 0 0 0 0 0 0 0 0 0 0 0 0 0 0 0 0 0 0 0 0 0 0
0 0 0 0 0 0 0 0 0 0 0 0 0 0 0 0 0 0 0 0 0 0 0 0 0 0 0 0 0 0 0 0 0 0 0 0 0 0 0 0 0 0 0 0
0 0 0 0 0 0 0 0 0 0 0 0 0 0 0 0 0 0 0 0 0 0 0 0 0 0 0 0 0 0 0 0 0 0 0 0 0 0 0 0 0 0 0 0
Wind_Speed
6 5 4 6 8 8 10 11 11 11 11 11 7 6 4 3 2 2 2 2 2 1 2 2 2 2 2 3 3 2 2 2 2 3 3 2 2 2 1 1 1 1 1 1
5 5 5 8 10 11 12 11 12 12 14 8 4 3 3 3 3 3 3 2 2 1 2 2 3 3 3 3 3 2 2 2 2 3 3 2 2 2 2 2 2 2 2 2
5 3 2 11 11 11 8 8 8 12 12 4 4 5 5 5 4 4 3 2 2 2 2 2 2 2 2 2 2 2 2 2 3 2 2 2 2 3 2 2 2 2 2 2
2 1 9 9 3 7 9 9 8 7 6 5 6 5 4 3 3 3 3 2 2 2 2 2 2 2 2 2 2 2 2 2 3 3 2 3 2 2 2 2 2 1 1 1
3 5 10 9 4 5 6 8 7 8 7 4 1 2 3 2 2 3 3 2 2 2 1 1 1 2 1 1 1 1 2 2 2 2 2 2 2 2 2 2 1 1 1 1
4 5 9 7 2 2 2 7 4 5 5 3 2 3 5 2 2 1 1 1 1 0 0 1 2 1 1 1 1 2 3 3 3 2 2 2 2 2 1 1 1 1 1 1
7 7 11 7 2 4 5 7 2 4 4 5 6 6 2 1 1 1 1 1 1 1 0 1 1 1 0 1 2 3 3 3 3 2 2 2 2 1 1 1 1 1 1 1
6 7 12 3 6 7 6 1 1 3 3 4 4 2 1 2 2 1 1 0 1 1 1 1 1 1 1 2 3 2 2 2 2 2 2 1 1 1 1 1 0 1 1 2
10 9 4 4 5 3 1 2 3 3 3 3 3 3 2 2 2 2 2 1 1 1 1 1 1 1 2 3 2 2 2 2 2 2 2 1 1 0 0 0 0 0 1 1
5 8 6 5 4 3 3 4 4 3 3 3 4 3 3 3 3 2 2 2 1 1 2 2 2 1 2 2 2 1 2 2 2 2 2 1 1 1 1 1 1 1 1 1
7 6 4 5 6 5 4 3 3 2 3 3 3 4 4 3 3 3 2 2 2 2 3 3 2 2 2 1 1 1 2 2 2 1 1 1 1 1 1 2 2 2 2 1
8 5 5 6 4 4 4 4 4 3 3 3 3 4 4 3 3 3 3 2 2 3 3 3 3 3 2 1 1 1 2 2 1 1 1 1 1 2 3 3 4 4 4 3
6 4 4 5 3 2 3 4 3 3 3 3 2 3 3 3 3 2 3 3 3 4 4 3 3 4 3 2 2 2 3 2 2 1 1 1 1 1 2 3 3 3 4 4
4 3 4 4 4 3 3 2 1 1 1 2 2 2 2 2 2 3 4 4 3 3 3 3 4 5 3 2 2 2 2 2 2 2 2 2 2 2 2 2 2 2 3 4
4 4 5 4 2 2 1 1 1 2 2 2 1 2 2 3 4 4 4 2 2 2 3 3 4 5 3 2 2 3 2 2 2 2 2 2 2 2 2 2 2 2 2 3
4 3 3 3 3 3 2 2 3 4 3 3 3 3 3 3 4 4 3 2 3 4 4 4 5 5 3 2 2 2 2 3 2 2 2 2 2 2 2 2 2 2 3 3
2 3 3 4 5 4 4 4 4 4 3 4 4 3 2 2 3 3 3 3 4 5 5 5 6 4 3 3 3 3 2 2 3 2 2 3 2 3 3 3 3 3 3 4
4 5 4 5 5 5 5 4 3 4 4 4 3 2 3 3 4 5 4 2 3 4 5 5 4 3 3 3 3 3 2 2 3 3 3 3 3 3 3 3 3 4 3 3
3 3 3 3 3 3 4 4 3 3 3 2 2 4 4 4 4 4 3 2 4 5 5 3 4 2 3 4 3 2 3 3 3 3 3 3 3 3 3 4 4 4 3 3
3 3 3 3 2 2 3 3 2 2 2 2 2 3 4 4 3 3 3 4 5 5 4 3 3 3 3 4 3 2 3 3 3 3 3 3 3 3 4 4 4 4 4 4
4 4 3 3 3 3 2 2 2 3 2 2 3 4 4 4 3 2 3 5 4 3 3 4 3 3 3 3 3 2 3 3 3 3 3 4 4 4 4 4 4 4 4 4
3 3 3 3 3 3 3 2 2 2 2 2 3 3 3 4 3 3 4 5 4 3 3 3 3 3 4 3 2 3 3 3 3 3 3 4 4 4 4 4 4 4 4 4
3 3 3 3 3 3 3 2 2 2 3 3 3 3 4 4 3 3 4 3 2 4 4 3 5 6 5 3 2 3 3 4 4 4 4 4 4 4 4 5 4 4 4 4
3 3 3 2 2 2 3 3 3 2 3 3 3 3 3 3 3 3 3 4 5 5 4 5 7 7 4 2 2 3 3 4 4 4 4 4 4 4 4 5 5 4 5 5
3 2 2 2 2 2 3 3 3 3 3 3 3 3 2 2 3 3 3 4 5 5 4 6 7 6 3 2 3 3 4 4 4 4 4 4 4 4 4 5 5 5 5 5
2 2 2 2 2 2 2 2 2 3 2 3 3 3 2 2 3 3 3 4 5 5 4 4 4 4 3 3 3 4 4 4 4 4 4 4 5 5 5 5 5 5 5 5
2 2 2 2 2 2 2 2 2 3 3 3 4 4 3 3 3 3 4 4 4 4 4 3 3 3 3 3 3 4 4 4 4 4 4 4 4 5 5 6 5 5 5 5
Wind_Direction
250 258 228 231 235 220 218 220 228 247 251 260 252 253 258 257 262 280 289 298 308 330 348 351 357 354 352 347 352 2 17 12 356 350 351 359 10 6 18 30 27 21 26 17
265 253 254 258 246 231 232 232 240 257 262 264 261 249 245 236 233 252 265 282 307 334 340 340 345 342 342 342 347 1 8 355 350 355 359 4 5 10 23 27 31 36 36 32
259 287 319 263 231 216 221 214 208 235 250 257 258 247 238 232 229 238 251 264 275 287 300 317 324 328 317 327 342 0 5 357 352 352 355 358 2 15 16 11 25 37 38 35
237 60 241 249 194 201 219 234 223 239 259 240 241 250 252 223 209 238 255 265 271 279 298 310 317 322 323 345 358 4 5 357 350 347 348 355 4 6 359 359 8 13 20 16
180 232 268 283 242 186 200 249 221 230 253 261 292 313 269 237 212 221 234 243 251 254 272 300 314 322 329 355 5 356 337 334 336 338 341 345 346 344 343 349 359 346 9 12
180 208 241 253 219 185 148 263 221 202 231 225 155 242 255 216 219 245 240 211 232 278 15 332 318 325 1 355 340 317 318 321 326 328 329 323 317 324 335 339 334 330 1 8
211 232 257 256 200 137 186 253 217 198 211 196 204 228 236 179 221 223 209 200 150 140 221 283 305 322 325 323 304 311 326 334 337 335 325 318 324 332 348 2 358 344 355 354
187 217 249 202 148 186 221 273 194 209 214 210 226 241 223 200 205 208 218 212 169 179 261 305 304 256 263 285 300 323 332 333 329 327 320 325 328 342 4 13 354 340 351 347
196 217 239 178 197 217 207 233 240 227 231 206 225 239 233 228 225 232 226 236 214 197 264 306 299 262 257 287 312 323 327 320 317 319 322 331 320 324 344 314 275 317 327 322
240 253 251 250 254 264 253 241 249 236 223 210 227 228 229 226 227 233 234 228 216 203 240 274 290 288 272 291 304 297 297 306 310 316 326 333 313 276 245 238 233 254 281 298
247 264 285 261 242 247 255 258 264 265 251 226 212 230 227 228 229 230 240 243 225 221 235 254 267 277 286 289 271 264 275 287 293 296 295 303 302 275 264 246 226 233 238 242
240 235 230 254 254 252 248 251 246 244 260 250 222 226 224 231 232 230 235 244 241 236 243 256 261 268 277 262 214 219 255 270 267 267 278 284 296 314 302 285 276 273 270 269
254 274 258 268 273 267 263 271 264 246 242 246 240 216 216 236 239 240 245 242 241 239 243 249 256 263 269 255 218 215 229 246 247 242 239 244 254 267 296 318 316 310 305 299
258 267 269 266 269 282 275 279 279 289 271 243 236 221 217 232 242 243 250 251 252 246 246 246 253 263 267 249 226 230 235 241 228 227 230 232 237 244 247 262 292 304 312 309
273 259 250 268 283 301 302 291 262 269 265 267 245 230 225 231 243 253 261 259 253 252 251 248 253 266 271 231 225 229 232 237 224 223 226 229 234 237 236 239 250 272 298 302
288 285 264 256 258 270 278 260 249 257 253 254 258 253 247 246 256 264 262 236 232 248 250 247 254 263 257 225 225 235 237 241 227 218 223 224 224 225 230 233 239 249 257 267
265 272 267 267 268 268 258 250 247 254 255 252 257 261 256 255 268 267 265 255 247 252 252 249 256 263 244 227 220 227 229 233 222 216 221 223 223 225 227 230 236 244 251 254
254 258 254 248 257 266 272 267 257 254 253 259 264 252 239 234 248 261 267 271 270 272 261 250 251 254 245 238 231 225 221 223 214 214 221 223 226 227 227 232 239 248 257 265
301 288 289 276 263 257 264 267 264 260 262 255 243 245 246 246 249 258 263 257 256 267 269 251 256 257 254 250 244 229 222 224 227 224 222 223 227 226 226 231 238 243 250 253
329 325 315 309 302 270 268 277 275 270 262 240 250 265 270 265 257 256 256 257 251 253 262 264 258 251 252 251 247 229 227 231 235 236 230 226 229 232 231 234 237 241 243 245
316 318 317 312 310 303 282 277 272 275 280 248 237 252 265 275 266 244 249 273 275 256 257 258 255 257 255 252 242 232 229 234 239 240 238 237 237 238 238 238 239 242 243 246
309 310 311 313 310 311 313 302 279 275 280 275 265 261 268 277 274 266 249 253 273 283 282 271 264 258 260 257 241 236 236 238 241 242 242 241 241 243 244 243 244 245 244 245
310 310 311 311 304 304 318 317 296 281 274 269 265 262 260 264 261 261 279 275 277 281 283 274 274 272 268 253 237 237 240 242 245 245 245 243 242 244 247 247 248 247 248 250
315 318 313 311 321 323 317 317 315 299 284 282 275 268 267 278 283 262 266 284 289 290 285 276 277 278 276 258 247 246 247 247 248 248 248 248 246 246 248 249 251 252 251 252
311 311 314 319 315 301 297 310 318 312 306 303 300 292 278 262 265 286 293 289 290 293 290 286 286 286 278 258 251 251 251 249 249 250 250 251 250 249 250 249 249 251 252 253
307 303 298 290 286 295 302 305 304 305 310 311 312 310 305 297 286 288 290 288 287 287 287 287 285 282 272 264 260 259 260 261 259 255 253 254 256 254 254 253 250 252 254 256
311 307 309 317 317 310 306 303 296 300 299 294 300 307 309 307 301 297 294 294 294 293 290 289 287 282 277 271 267 264 263 262 259 257 256 254 255 255 256 253 255 255 255 257